Location: Unspecified
(0.0000°N, 0.0000°E)
Time: 06:37:06
(UTC+00:00)

Courier 1B - Pass Details

Date: 21 November 2019
Orbit: 963 x 1209 km, 28.3° (Epoch: 11 December)

Event Time Altitude Azimuth Distance (km) Brightness Sun altitude
Rises 15:49:48 0° 255° (WSW) 3,737 11.8 27.1°
Reaches altitude 10° 15:54:03 10° 230° (SW) 2,839 11.4 26.1°
Maximum altitude 15:57:22 14° 201° (SSW) 2,610 10.5 25.4°
Drops below altitude 10° 16:00:47 10° 172° (S) 2,930 10.3 24.6°
Sets 16:05:20 0° 147° (SSE) 3,949 10.6 23.5°
